| time (UTC) | temp C | wind direction | speed KPH | gust KPH | rain 1hr cm | rain 24hr cm | rain mn cm | humidity % | barometer mb |
| 20260506045038 | 21 | 191 | 4.8 | 17.7 | 0.00 | 0.00 | 0.00 | 41 | 1008.1 |
| 20260506044549 | 20 | 168 | 3.2 | 14.5 | 0.00 | 0.00 | 0.00 | 43 | 1008.0 |
| 20260506044036 | 20 | 0 | 4.8 | 14.5 | 0.00 | 0.00 | 0.00 | 43 | 1008.0 |
| 20260506043538 | 20 | 227 | 1.6 | 17.7 | 0.00 | 0.00 | 0.00 | 45 | 1008.1 |
| 20260506043049 | 19 | 247 | 4.8 | 17.7 | 0.00 | 0.00 | 0.00 | 46 | 1008.0 |
| 20260506042538 | 18 | 216 | 6.4 | 17.7 | 0.00 | 0.00 | 0.00 | 48 | 1007.8 |
| 20260506042038 | 18 | 0 | 0.0 | 9.7 | 0.00 | 0.00 | 0.00 | 52 | 1008.0 |
| 20260506041553 | 18 | 0 | 0.0 | 9.7 | 0.00 | 0.00 | 0.00 | 53 | 1008.0 |
| 20260506041038 | 18 | 202 | 0.0 | 4.8 | 0.00 | 0.00 | 0.00 | 54 | 1008.1 |
| 20260506040538 | 17 | 0 | 0.0 | 9.7 | 0.00 | 0.00 | 0.00 | 54 | 1008.1 |
| 20260506040105 | 17 | 186 | 0.0 | 9.7 | 0.00 | 0.00 | 0.00 | 56 | 1008.2 |
| 20260506035538 | 16 | 217 | 3.2 | 9.7 | 0.00 | 0.00 | 0.00 | 58 | 1008.1 |
| 20260506035038 | 16 | 0 | 0.0 | 6.4 | 0.00 | 0.00 | 0.00 | 64 | 1008.2 |
| 20260506034549 | 16 | 157 | 0.0 | 6.4 | 0.00 | 0.00 | 0.00 | 66 | 1008.2 |
| 20260506034038 | 16 | 0 | 0.0 | 3.2 | 0.00 | 0.00 | 0.00 | 68 | 1008.0 |
| 20260506033539 | 15 | 0 | 0.0 | 1.6 | 0.00 | 0.00 | 0.00 | 68 | 1008.1 |
| 20260506033055 | 15 | 0 | 0.0 | 6.4 | 0.00 | 0.00 | 0.00 | 68 | 1008.2 |
| 20260506032538 | 15 | 0 | 1.6 | 6.4 | 0.00 | 0.00 | 0.00 | 70 | 1008.1 |
| 20260506032043 | 15 | 0 | 0.0 | 1.6 | 0.00 | 0.00 | 0.00 | 70 | 1008.1 |
| 20260506031601 | 15 | 0 | 0.0 | 3.2 | 0.00 | 0.00 | 0.00 | 71 | 1008.2 |
| 20260506031038 | 15 | 0 | 0.0 | 3.2 | 0.00 | 0.00 | 0.00 | 72 | 1008.2 |
| 20260506030539 | 15 | 113 | 0.0 | 3.2 | 0.00 | 0.00 | 0.00 | 73 | 1008.1 |
| 20260506025539 | 15 | 263 | 0.0 | 3.2 | 0.00 | 0.00 | 0.00 | 74 | 1008.2 |
| 20260506025038 | 15 | 0 | 0.0 | 3.2 | 0.00 | 0.00 | 0.00 | 73 | 1008.2 |
| 20260506024558 | 15 | 0 | 0.0 | 3.2 | 0.00 | 0.00 | 0.00 | 72 | 1008.2 |
| 20260506024038 | 15 | 296 | 0.0 | 3.2 | 0.00 | 0.00 | 0.00 | 72 | 1008.1 |
| 20260506023539 | 16 | 0 | 0.0 | 3.2 | 0.00 | 0.00 | 0.00 | 71 | 1008.2 |
| 20260506023057 | 16 | 0 | 0.0 | 1.6 | 0.00 | 0.00 | 0.00 | 70 | 1008.2 |
| 20260506022538 | 16 | 0 | 0.0 | 0.0 | 0.00 | 0.00 | 0.00 | 69 | 1008.2 |
| 20260506022037 | 16 | 0 | 0.0 | 0.0 | 0.00 | 0.00 | 0.00 | 69 | 1008.4 |
| 20260506021600 | 16 | 0 | 0.0 | 0.0 | 0.00 | 0.00 | 0.00 | 69 | 1008.2 |
| 20260506021039 | 17 | 0 | 0.0 | 0.0 | 0.00 | 0.00 | 0.00 | 68 | 1008.3 |
| 20260506020536 | 17 | 0 | 0.0 | 0.0 | 0.00 | 0.00 | 0.00 | 67 | 1008.3 |
| 20260506020048 | 17 | 0 | 0.0 | 1.6 | 0.00 | 0.00 | 0.00 | 67 | 1008.2 |
| 20260506015538 | 17 | 0 | 0.0 | 1.6 | 0.00 | 0.00 | 0.00 | 66 | 1008.2 |
| 20260506015042 | 18 | 0 | 0.0 | 3.2 | 0.00 | 0.00 | 0.00 | 65 | 1008.2 |
| 20260506014558 | 18 | 0 | 0.0 | 3.2 | 0.00 | 0.00 | 0.00 | 64 | 1008.1 |
| 20260506014037 | 18 | 204 | 0.0 | 0.0 | 0.00 | 0.00 | 0.00 | 63 | 1008.2 |
| 20260506013537 | 19 | 0 | 0.0 | 0.0 | 0.00 | 0.00 | 0.00 | 62 | 1008.1 |
| 20260506013054 | 19 | 0 | 0.0 | 3.2 | 0.00 | 0.00 | 0.00 | 61 | 1008.2 |
| 20260506012537 | 19 | 0 | 0.0 | 3.2 | 0.00 | 0.00 | 0.00 | 60 | 1008.0 |
| 20260506012036 | 20 | 0 | 0.0 | 3.2 | 0.00 | 0.00 | 0.00 | 59 | 1007.9 |
| 20260506011552 | 20 | 0 | 0.0 | 1.6 | 0.00 | 0.00 | 0.00 | 58 | 1008.0 |
| 20260506011037 | 20 | 0 | 0.0 | 1.6 | 0.00 | 0.00 | 0.00 | 56 | 1007.9 |
| 20260506010539 | 21 | 0 | 0.0 | 1.6 | 0.00 | 0.00 | 0.00 | 55 | 1007.9 |
| 20260506010056 | 21 | 0 | 0.0 | 1.6 | 0.00 | 0.00 | 0.00 | 53 | 1007.8 |
| 20260506005537 | 21 | 0 | 0.0 | 1.6 | 0.00 | 0.00 | 0.00 | 53 | 1007.7 |
| 20260506005038 | 22 | 0 | 0.0 | 1.6 | 0.00 | 0.00 | 0.00 | 52 | 1007.7 |
| 20260506004553 | 22 | 0 | 0.0 | 1.6 | 0.00 | 0.00 | 0.00 | 52 | 1007.6 |
| 20260506004036 | 22 | 0 | 0.0 | 1.6 | 0.00 | 0.00 | 0.00 | 50 | 1007.6 |
| 20260506003537 | 22 | 0 | 0.0 | 3.2 | 0.00 | 0.00 | 0.00 | 49 | 1007.5 |
| 20260506003049 | 23 | 0 | 0.0 | 3.2 | 0.00 | 0.00 | 0.00 | 47 | 1007.4 |
| 20260506002538 | 23 | 0 | 0.0 | 0.0 | 0.00 | 0.00 | 0.00 | 46 | 1007.4 |
| 20260506002037 | 23 | 0 | 0.0 | 0.0 | 0.00 | 0.00 | 0.00 | 45 | 1007.3 |
| 20260506001552 | 23 | 0 | 0.0 | 1.6 | 0.00 | 0.00 | 0.00 | 46 | 1007.3 |
| 20260506001037 | 23 | 0 | 0.0 | 3.2 | 0.00 | 0.00 | 0.00 | 44 | 1007.3 |
| 20260506000537 | 24 | 0 | 0.0 | 3.2 | 0.00 | 0.00 | 0.00 | 43 | 1007.2 |
| 20260506000059 | 24 | 0 | 1.6 | 3.2 | 0.00 | 0.00 | 0.00 | 42 | 1007.2 |
| 20260505235537 | 24 | 0 | 0.0 | 16.1 | 0.00 | 0.00 | 0.00 | 42 | 1007.1 |
| 20260505235038 | 24 | 265 | 0.0 | 16.1 | 0.00 | 0.00 | 0.00 | 41 | 1007.0 |
| 20260505234551 | 25 | 0 | 3.2 | 16.1 | 0.00 | 0.00 | 0.00 | 40 | 1007.0 |
| 20260505234036 | 25 | 257 | 1.6 | 16.1 | 0.00 | 0.00 | 0.00 | 40 | 1006.9 |
| 20260505233537 | 25 | 307 | 1.6 | 19.3 | 0.00 | 0.00 | 0.00 | 39 | 1006.9 |
| 20260505233057 | 25 | 264 | 3.2 | 19.3 | 0.00 | 0.00 | 0.00 | 38 | 1006.8 |
| 20260505232536 | 25 | 227 | 8.0 | 19.3 | 0.00 | 0.00 | 0.00 | 37 | 1006.7 |
| 20260505232037 | 25 | 205 | 3.2 | 22.5 | 0.00 | 0.00 | 0.00 | 38 | 1006.5 |
| 20260505231545 | 25 | 279 | 6.4 | 22.5 | 0.00 | 0.00 | 0.00 | 37 | 1006.4 |
| 20260505231039 | 25 | 205 | 6.4 | 22.5 | 0.00 | 0.00 | 0.00 | 37 | 1006.3 |
| 20260505230636 | 25 | 223 | 4.8 | 22.5 | 0.00 | 0.00 | 0.00 | 37 | 1006.4 |
| 20260505230051 | 25 | 188 | 8.0 | 22.5 | 0.00 | 0.00 | 0.00 | 37 | 1006.3 |
| 20260505225540 | 25 | 204 | 4.8 | 19.3 | 0.00 | 0.00 | 0.00 | 37 | 1006.4 |
| 20260505225041 | 25 | 172 | 6.4 | 19.3 | 0.00 | 0.00 | 0.00 | 37 | 1006.2 |
| 20260505224549 | 25 | 220 | 6.4 | 19.3 | 0.00 | 0.00 | 0.00 | 37 | 1006.2 |
| 20260505224040 | 25 | 223 | 4.8 | 24.1 | 0.00 | 0.00 | 0.00 | 37 | 1006.2 |
| 20260505223539 | 25 | 194 | 8.0 | 24.1 | 0.00 | 0.00 | 0.00 | 37 | 1006.3 |
| 20260505223050 | 25 | 240 | 8.0 | 24.1 | 0.00 | 0.00 | 0.00 | 37 | 1006.3 |
| 20260505222536 | 25 | 202 | 6.4 | 19.3 | 0.00 | 0.00 | 0.00 | 37 | 1006.4 |
| 20260505222037 | 25 | 205 | 6.4 | 14.5 | 0.00 | 0.00 | 0.00 | 37 | 1006.5 |
| 20260505221546 | 25 | 182 | 4.8 | 16.1 | 0.00 | 0.00 | 0.00 | 38 | 1006.5 |
| 20260505221038 | 25 | 165 | 6.4 | 17.7 | 0.00 | 0.00 | 0.00 | 37 | 1006.5 |
| 20260505220537 | 25 | 192 | 6.4 | 17.7 | 0.00 | 0.00 | 0.00 | 37 | 1006.4 |
| 20260505220050 | 25 | 169 | 4.8 | 16.1 | 0.00 | 0.00 | 0.00 | 37 | 1006.3 |
| 20260505215538 | 25 | 219 | 4.8 | 19.3 | 0.00 | 0.00 | 0.00 | 37 | 1006.2 |
| 20260505215038 | 25 | 167 | 3.2 | 20.9 | 0.00 | 0.00 | 0.00 | 38 | 1006.2 |
| 20260505214544 | 26 | 209 | 6.4 | 20.9 | 0.00 | 0.00 | 0.00 | 37 | 1006.1 |
| 20260505214036 | 26 | 161 | 4.8 | 17.7 | 0.00 | 0.00 | 0.00 | 37 | 1006.1 |
| 20260505213537 | 26 | 167 | 6.4 | 20.9 | 0.00 | 0.00 | 0.00 | 37 | 1006.1 |
| 20260505213048 | 26 | 159 | 4.8 | 20.9 | 0.00 | 0.00 | 0.00 | 37 | 1006.0 |
| 20260505212537 | 26 | 163 | 8.0 | 20.9 | 0.00 | 0.00 | 0.00 | 37 | 1006.0 |
| 20260505212038 | 26 | 242 | 8.0 | 20.9 | 0.00 | 0.00 | 0.00 | 37 | 1006.1 |
| 20260505211546 | 26 | 221 | 8.0 | 20.9 | 0.00 | 0.00 | 0.00 | 36 | 1005.9 |
| 20260505211037 | 26 | 144 | 8.0 | 25.7 | 0.00 | 0.00 | 0.00 | 36 | 1006.1 |
| 20260505210536 | 26 | 187 | 6.4 | 25.7 | 0.00 | 0.00 | 0.00 | 36 | 1006.0 |
| 20260505210049 | 26 | 210 | 8.0 | 22.5 | 0.00 | 0.00 | 0.00 | 36 | 1006.0 |
| 20260505205541 | 26 | 168 | 6.4 | 24.1 | 0.00 | 0.00 | 0.00 | 36 | 1006.0 |
| 20260505205037 | 26 | 108 | 11.3 | 25.7 | 0.00 | 0.00 | 0.00 | 35 | 1006.0 |
| 20260505204548 | 26 | 196 | 11.3 | 30.6 | 0.00 | 0.00 | 0.00 | 35 | 1006.1 |
| 20260505204037 | 26 | 211 | 9.7 | 30.6 | 0.00 | 0.00 | 0.00 | 35 | 1005.9 |
| 20260505203538 | 26 | 167 | 9.7 | 22.5 | 0.00 | 0.00 | 0.00 | 36 | 1005.9 |
| 20260505203050 | 26 | 185 | 8.0 | 25.7 | 0.00 | 0.00 | 0.00 | 36 | 1005.9 |
| 20260505202538 | 26 | 199 | 8.0 | 27.4 | 0.00 | 0.00 | 0.00 | 35 | 1005.9 |
| 20260505202037 | 26 | 119 | 11.3 | 29.0 | 0.00 | 0.00 | 0.00 | 34 | 1006.0 |
| 20260505201553 | 26 | 198 | 12.9 | 33.8 | 0.00 | 0.00 | 0.00 | 34 | 1006.0 |
| 20260505201037 | 27 | 192 | 14.5 | 33.8 | 0.00 | 0.00 | 0.00 | 33 | 1005.9 |
| 20260505200539 | 27 | 198 | 16.1 | 30.6 | 0.00 | 0.00 | 0.00 | 32 | 1006.1 |
| 20260505200048 | 27 | 201 | 12.9 | 24.1 | 0.00 | 0.00 | 0.00 | 34 | 1006.1 |
| 20260505195540 | 27 | 206 | 9.7 | 24.1 | 0.00 | 0.00 | 0.00 | 34 | 1006.1 |
| 20260505195038 | 27 | 162 | 8.0 | 40.2 | 0.00 | 0.00 | 0.00 | 34 | 1006.3 |
| 20260505194557 | 27 | 215 | 16.1 | 40.2 | 0.00 | 0.00 | 0.00 | 33 | 1006.2 |
| 20260505194038 | 27 | 209 | 11.3 | 32.2 | 0.00 | 0.00 | 0.00 | 35 | 1006.2 |
| 20260505193537 | 27 | 163 | 11.3 | 33.8 | 0.00 | 0.00 | 0.00 | 34 | 1006.3 |
| 20260505193104 | 27 | 176 | 8.0 | 33.8 | 0.00 | 0.00 | 0.00 | 34 | 1006.4 |
| 20260505192619 | 27 | 265 | 12.9 | 35.4 | 0.00 | 0.00 | 0.00 | 34 | 1006.2 |
| 20260505192038 | 27 | 279 | 16.1 | 35.4 | 0.00 | 0.00 | 0.00 | 33 | 1006.2 |
| 20260505191544 | 27 | 194 | 16.1 | 33.8 | 0.00 | 0.00 | 0.00 | 34 | 1006.5 |
| 20260505191038 | 27 | 164 | 17.7 | 33.8 | 0.00 | 0.00 | 0.00 | 34 | 1006.2 |
| 20260505190536 | 27 | 202 | 14.5 | 30.6 | 0.00 | 0.00 | 0.00 | 35 | 1006.4 |
| 20260505190053 | 27 | 235 | 12.9 | 30.6 | 0.00 | 0.00 | 0.00 | 35 | 1006.4 |
| 20260505185537 | 27 | 261 | 8.0 | 27.4 | 0.00 | 0.00 | 0.00 | 35 | 1006.8 |
| 20260505185038 | 26 | 176 | 8.0 | 27.4 | 0.00 | 0.00 | 0.00 | 37 | 1006.8 |
| 20260505184552 | 26 | 215 | 9.7 | 27.4 | 0.00 | 0.00 | 0.00 | 38 | 1006.8 |
| 20260505184043 | 26 | 257 | 6.4 | 27.4 | 0.00 | 0.00 | 0.00 | 39 | 1006.8 |
| 20260505183536 | 26 | 205 | 9.7 | 24.1 | 0.00 | 0.00 | 0.00 | 39 | 1007.1 |
| 20260505183044 | 25 | 212 | 8.0 | 20.9 | 0.00 | 0.00 | 0.00 | 40 | 1007.2 |
| 20260505182538 | 25 | 213 | 6.4 | 19.3 | 0.00 | 0.00 | 0.00 | 40 | 1007.3 |
| 20260505182038 | 25 | 235 | 9.7 | 22.5 | 0.00 | 0.00 | 0.00 | 40 | 1007.4 |
| 20260505181548 | 25 | 218 | 9.7 | 29.0 | 0.00 | 0.00 | 0.00 | 40 | 1007.6 |
| 20260505181038 | 25 | 216 | 9.7 | 29.0 | 0.00 | 0.00 | 0.00 | 41 | 1007.7 |
| 20260505180538 | 25 | 186 | 11.3 | 22.5 | 0.00 | 0.00 | 0.00 | 41 | 1007.7 |
| 20260505180053 | 25 | 118 | 9.7 | 22.5 | 0.00 | 0.00 | 0.00 | 40 | 1007.6 |
| 20260505175537 | 25 | 198 | 9.7 | 22.5 | 0.00 | 0.00 | 0.00 | 41 | 1007.8 |
| 20260505175039 | 25 | 159 | 8.0 | 33.8 | 0.00 | 0.00 | 0.00 | 41 | 1007.7 |
| 20260505174546 | 25 | 229 | 9.7 | 33.8 | 0.00 | 0.00 | 0.00 | 41 | 1007.7 |
| 20260505174037 | 26 | 181 | 11.3 | 32.2 | 0.00 | 0.00 | 0.00 | 39 | 1007.6 |
| 20260505173536 | 26 | 170 | 12.9 | 32.2 | 0.00 | 0.00 | 0.00 | 40 | 1007.7 |
| 20260505173048 | 26 | 221 | 11.3 | 20.9 | 0.00 | 0.00 | 0.00 | 39 | 1007.6 |
| 20260505172536 | 26 | 195 | 12.9 | 20.9 | 0.00 | 0.00 | 0.00 | 40 | 1007.5 |
| 20260505172038 | 26 | 175 | 8.0 | 25.7 | 0.00 | 0.00 | 0.00 | 41 | 1007.5 |
| 20260505171550 | 26 | 222 | 6.4 | 25.7 | 0.00 | 0.00 | 0.00 | 40 | 1007.7 |
| 20260505171037 | 26 | 186 | 11.3 | 25.7 | 0.00 | 0.00 | 0.00 | 40 | 1007.8 |
| 20260505170536 | 26 | 304 | 9.7 | 27.4 | 0.00 | 0.00 | 0.00 | 41 | 1007.8 |
| 20260505170050 | 26 | 237 | 8.0 | 27.4 | 0.00 | 0.00 | 0.00 | 42 | 1007.8 |
| 20260505165538 | 25 | 165 | 8.0 | 27.4 | 0.00 | 0.00 | 0.00 | 42 | 1007.8 |
| 20260505165037 | 25 | 218 | 12.9 | 27.4 | 0.00 | 0.00 | 0.00 | 41 | 1008.2 |
| 20260505164549 | 25 | 237 | 11.3 | 30.6 | 0.00 | 0.00 | 0.00 | 42 | 1008.3 |
| 20260505164039 | 25 | 190 | 9.7 | 30.6 | 0.00 | 0.00 | 0.00 | 42 | 1008.3 |
| 20260505163537 | 25 | 219 | 11.3 | 32.2 | 0.00 | 0.00 | 0.00 | 42 | 1008.5 |
| 20260505163045 | 25 | 214 | 12.9 | 32.2 | 0.00 | 0.00 | 0.00 | 42 | 1008.6 |
| 20260505162538 | 25 | 182 | 9.7 | 24.1 | 0.00 | 0.00 | 0.00 | 43 | 1008.6 |
| 20260505162038 | 25 | 205 | 9.7 | 24.1 | 0.00 | 0.00 | 0.00 | 44 | 1008.7 |
| 20260505161625 | 25 | 211 | 9.7 | 25.7 | 0.00 | 0.00 | 0.00 | 44 | 1008.7 |
| 20260505161039 | 25 | 241 | 4.8 | 25.7 | 0.00 | 0.00 | 0.00 | 45 | 1008.6 |
| 20260505160538 | 25 | 182 | 6.4 | 20.9 | 0.00 | 0.00 | 0.00 | 46 | 1008.8 |
| 20260505153056 | 23 | 210 | 8.0 | 25.7 | 0.00 | 0.00 | 0.00 | 46 | 1009.2 |
| 20260505152537 | 23 | 177 | 9.7 | 24.1 | 0.00 | 0.00 | 0.00 | 46 | 1009.1 |
| 20260505152037 | 23 | 208 | 8.0 | 16.1 | 0.00 | 0.00 | 0.00 | 46 | 1009.1 |
| 20260505151551 | 23 | 210 | 8.0 | 16.1 | 0.00 | 0.00 | 0.00 | 47 | 1009.1 |
| 20260505151039 | 23 | 226 | 6.4 | 19.3 | 0.00 | 0.00 | 0.00 | 47 | 1009.2 |
| 20260505150537 | 23 | 176 | 4.8 | 19.3 | 0.00 | 0.00 | 0.00 | 47 | 1009.0 |
| 20260505140537 | 22 | 210 | 6.4 | 24.1 | 0.00 | 0.00 | 0.00 | 50 | 1009.3 |
| 20260505125040 | 20 | 169 | 6.4 | 19.3 | 0.00 | 0.00 | 0.00 | 54 | 1009.6 |
| 20260505124603 | 20 | 175 | 6.4 | 20.9 | 0.00 | 0.00 | 0.00 | 53 | 1009.6 |
| 20260505124040 | 20 | 233 | 6.4 | 20.9 | 0.00 | 0.00 | 0.00 | 54 | 1009.6 |
| 20260505123543 | 20 | 237 | 8.0 | 19.3 | 0.00 | 0.00 | 0.00 | 54 | 1009.7 |
| 20260505123104 | 20 | 146 | 6.4 | 20.9 | 0.00 | 0.00 | 0.00 | 54 | 1009.7 |
| 20260505122540 | 19 | 228 | 8.0 | 20.9 | 0.00 | 0.00 | 0.00 | 54 | 1009.6 |
| 20260505122041 | 19 | 207 | 3.2 | 16.1 | 0.00 | 0.00 | 0.00 | 56 | 1009.7 |
| 20260505121553 | 19 | 155 | 3.2 | 11.3 | 0.00 | 0.00 | 0.00 | 56 | 1009.6 |
| 20260505121042 | 19 | 234 | 3.2 | 11.3 | 0.00 | 0.00 | 0.00 | 56 | 1009.6 |
| 20260505120540 | 18 | 180 | 3.2 | 9.7 | 0.00 | 0.00 | 0.00 | 57 | 1009.4 |
| 20260505120100 | 18 | 0 | 1.6 | 9.7 | 0.00 | 0.00 | 0.00 | 57 | 1009.3 |
| 20260505115540 | 18 | 217 | 1.6 | 9.7 | 0.00 | 0.00 | 0.00 | 58 | 1009.4 |
| 20260505115038 | 18 | 241 | 1.6 | 12.9 | 0.00 | 0.00 | 0.00 | 58 | 1009.4 |
| 20260505114553 | 18 | 209 | 3.2 | 12.9 | 0.00 | 0.00 | 0.00 | 58 | 1009.5 |
| 20260505114040 | 18 | 314 | 3.2 | 12.9 | 0.00 | 0.00 | 0.00 | 58 | 1009.4 |
| 20260505113545 | 18 | 217 | 4.8 | 12.9 | 0.00 | 0.00 | 0.00 | 58 | 1009.4 |
| 20260505113054 | 18 | 229 | 3.2 | 12.9 | 0.00 | 0.00 | 0.00 | 58 | 1009.3 |
| 20260505112541 | 17 | 202 | 4.8 | 12.9 | 0.00 | 0.00 | 0.00 | 59 | 1009.2 |
| 20260505112041 | 17 | 169 | 6.4 | 12.9 | 0.00 | 0.00 | 0.00 | 59 | 1009.4 |
| 20260505111546 | 17 | 0 | 3.2 | 16.1 | 0.00 | 0.00 | 0.00 | 59 | 1009.3 |
| 20260505111040 | 17 | 162 | 6.4 | 20.9 | 0.00 | 0.00 | 0.00 | 59 | 1009.0 |
| 20260505110540 | 17 | 196 | 6.4 | 20.9 | 0.00 | 0.00 | 0.00 | 59 | 1009.1 |
| 20260505102042 | 16 | 0 | 1.6 | 12.9 | 0.00 | 0.00 | 0.00 | 62 | 1008.9 |
| 20260505101548 | 16 | 198 | 1.6 | 12.9 | 0.00 | 0.00 | 0.00 | 62 | 1008.7 |
| 20260505101040 | 16 | 200 | 3.2 | 12.9 | 0.00 | 0.00 | 0.00 | 63 | 1008.5 |
| 20260505100624 | 16 | 164 | 3.2 | 17.7 | 0.00 | 0.00 | 0.00 | 64 | 1008.7 |
| 20260505100053 | 15 | 153 | 4.8 | 17.7 | 0.00 | 0.00 | 0.00 | 65 | 1008.6 |
| 20260505095539 | 15 | 159 | 4.8 | 16.1 | 0.00 | 0.00 | 0.00 | 66 | 1008.6 |
| 20260505095039 | 15 | 231 | 1.6 | 6.4 | 0.00 | 0.00 | 0.00 | 67 | 1008.6 |
| 20260505094549 | 15 | 225 | 0.0 | 6.4 | 0.00 | 0.00 | 0.00 | 67 | 1008.6 |
| 20260505094040 | 15 | 0 | 1.6 | 8.0 | 0.00 | 0.00 | 0.00 | 67 | 1008.5 |
| 20260505093539 | 15 | 119 | 1.6 | 8.0 | 0.00 | 0.00 | 0.00 | 66 | 1008.5 |
| 20260505093045 | 15 | 0 | 0.0 | 4.8 | 0.00 | 0.00 | 0.00 | 66 | 1008.6 |
| 20260505092540 | 15 | 0 | 1.6 | 4.8 | 0.00 | 0.00 | 0.00 | 65 | 1008.5 |
| 20260505092039 | 16 | 119 | 0.0 | 4.8 | 0.00 | 0.00 | 0.00 | 64 | 1008.5 |
| 20260505091613 | 16 | 0 | 0.0 | 6.4 | 0.00 | 0.00 | 0.00 | 64 | 1008.4 |
| 20260505091040 | 16 | 0 | 0.0 | 6.4 | 0.00 | 0.00 | 0.00 | 63 | 1008.4 |
| 20260505090541 | 16 | 0 | 0.0 | 4.8 | 0.00 | 0.00 | 0.00 | 62 | 1008.4 |
| 20260505090104 | 16 | 0 | 0.0 | 1.6 | 0.00 | 0.00 | 0.00 | 62 | 1008.5 |
| 20260505085540 | 17 | 0 | 0.0 | 6.4 | 0.00 | 0.00 | 0.00 | 62 | 1008.5 |
| 20260505085040 | 17 | 0 | 1.6 | 6.4 | 0.00 | 0.00 | 0.00 | 61 | 1008.5 |
| 20260505084602 | 17 | 0 | 0.0 | 4.8 | 0.00 | 0.00 | 0.00 | 61 | 1008.4 |
| 20260505084039 | 17 | 148 | 0.0 | 12.9 | 0.00 | 0.00 | 0.00 | 60 | 1008.3 |
| 20260505083539 | 17 | 0 | 1.6 | 12.9 | 0.00 | 0.00 | 0.00 | 60 | 1008.3 |
| 20260505083104 | 17 | 138 | 3.2 | 12.9 | 0.00 | 0.00 | 0.00 | 60 | 1008.3 |
| 20260505082539 | 17 | 160 | 3.2 | 12.9 | 0.00 | 0.00 | 0.00 | 60 | 1008.4 |
| 20260505082040 | 17 | 153 | 1.6 | 9.7 | 0.00 | 0.00 | 0.00 | 60 | 1008.3 |
| 20260505081558 | 17 | 0 | 3.2 | 9.7 | 0.00 | 0.00 | 0.00 | 60 | 1008.2 |
| 20260505081040 | 17 | 180 | 3.2 | 9.7 | 0.00 | 0.00 | 0.00 | 60 | 1008.2 |
| 20260505080539 | 17 | 172 | 1.6 | 12.9 | 0.00 | 0.00 | 0.00 | 60 | 1008.3 |
| 20260505080057 | 17 | 0 | 3.2 | 12.9 | 0.00 | 0.00 | 0.00 | 60 | 1008.2 |
| 20260505075539 | 17 | 180 | 1.6 | 8.0 | 0.00 | 0.00 | 0.00 | 61 | 1008.2 |
| 20260505075037 | 17 | 227 | 1.6 | 8.0 | 0.00 | 0.00 | 0.00 | 61 | 1008.1 |
| 20260505074545 | 17 | 192 | 1.6 | 6.4 | 0.00 | 0.00 | 0.00 | 61 | 1008.0 |
| 20260505074039 | 17 | 0 | 0.0 | 4.8 | 0.00 | 0.00 | 0.00 | 60 | 1008.0 |
| 20260505073539 | 17 | 238 | 1.6 | 11.3 | 0.00 | 0.00 | 0.00 | 60 | 1008.0 |
| 20260505073053 | 17 | 275 | 0.0 | 16.1 | 0.00 | 0.00 | 0.00 | 60 | 1008.0 |
| 20260505072540 | 17 | 201 | 4.8 | 17.7 | 0.00 | 0.00 | 0.00 | 59 | 1007.8 |
| 20260505072039 | 17 | 179 | 8.0 | 17.7 | 0.00 | 0.00 | 0.00 | 59 | 1007.9 |
| 20260505071549 | 17 | 189 | 3.2 | 12.9 | 0.00 | 0.00 | 0.00 | 59 | 1008.2 |
| 20260505071042 | 17 | 138 | 1.6 | 12.9 | 0.00 | 0.00 | 0.00 | 57 | 1008.1 |
| 20260505070540 | 17 | 0 | 0.0 | 6.4 | 0.00 | 0.00 | 0.00 | 56 | 1008.2 |
| 20260505070052 | 18 | 0 | 0.0 | 8.0 | 0.00 | 0.00 | 0.00 | 56 | 1008.1 |
| 20260505065540 | 18 | 145 | 0.0 | 8.0 | 0.00 | 0.00 | 0.00 | 55 | 1008.1 |
| 20260505065040 | 18 | 227 | 1.6 | 8.0 | 0.00 | 0.00 | 0.00 | 55 | 1008.0 |
| 20260505064603 | 18 | 0 | 0.0 | 12.9 | 0.00 | 0.00 | 0.00 | 55 | 1008.1 |
| 20260505064040 | 18 | 205 | 1.6 | 16.1 | 0.00 | 0.00 | 0.00 | 55 | 1008.2 |
| 20260505063540 | 18 | 169 | 3.2 | 16.1 | 0.00 | 0.00 | 0.00 | 55 | 1008.2 |
| 20260505063052 | 18 | 157 | 1.6 | 11.3 | 0.00 | 0.00 | 0.00 | 54 | 1008.2 |
| 20260505062540 | 18 | 211 | 1.6 | 11.3 | 0.00 | 0.00 | 0.00 | 54 | 1008.2 |
| 20260505062041 | 18 | 235 | 1.6 | 9.7 | 0.00 | 0.00 | 0.00 | 54 | 1008.3 |
| 20260505061556 | 18 | 252 | 3.2 | 16.1 | 0.00 | 0.00 | 0.00 | 54 | 1008.3 |
| 20260505061041 | 18 | 219 | 4.8 | 19.3 | 0.00 | 0.00 | 0.00 | 53 | 1008.3 |
| 20260505060538 | 18 | 152 | 3.2 | 19.3 | 0.00 | 0.00 | 0.00 | 53 | 1008.3 |
| 20260505060100 | 18 | 229 | 4.8 | 11.3 | 0.00 | 0.00 | 0.00 | 53 | 1008.4 |
| 20260505055540 | 18 | 191 | 1.6 | 8.0 | 0.00 | 0.00 | 0.00 | 54 | 1008.4 |
| 20260505055040 | 18 | 0 | 1.6 | 9.7 | 0.00 | 0.00 | 0.00 | 53 | 1008.3 |
| 20260505054554 | 18 | 246 | 3.2 | 9.7 | 0.00 | 0.00 | 0.00 | 53 | 1008.4 |
| 20260505054040 | 18 | 207 | 1.6 | 12.9 | 0.00 | 0.00 | 0.00 | 53 | 1008.5 |
| 20260505053539 | 18 | 0 | 1.6 | 14.5 | 0.00 | 0.00 | 0.00 | 53 | 1008.5 |
| 20260505053052 | 18 | 244 | 1.6 | 16.1 | 0.00 | 0.00 | 0.00 | 53 | 1008.5 |
| 20260505052539 | 18 | 213 | 4.8 | 16.1 | 0.00 | 0.00 | 0.00 | 53 | 1008.5 |
| 20260505052040 | 18 | 227 | 1.6 | 14.5 | 0.00 | 0.00 | 0.00 | 52 | 1008.5 |
| 20260505051549 | 18 | 201 | 4.8 | 14.5 | 0.00 | 0.00 | 0.00 | 52 | 1008.5 |
| 20260505051038 | 18 | 209 | 3.2 | 11.3 | 0.00 | 0.00 | 0.00 | 52 | 1008.5 |
| 20260505050540 | 18 | 203 | 1.6 | 14.5 | 0.00 | 0.00 | 0.00 | 52 | 1008.6 |